User: anonymous   Login
Location: Unspecified
(0.0000°N, 0.0000°E)
Time: 19:55:27
(UTC+00:00)
Language:

PAYLOAD H - Orbit

View from above orbital plane
View from above orbital plane
View from above satellite
View from above satellite

Ground track
Ground track

The orbit data is extracted from the following two-line orbital elements,

1 27847U 03031H   17268.94076318 +.00000033 +00000-0 +34520-4 0  9991
2 27847 098.6850 275.1695 0009931 036.2102 323.9746 14.22071418738739
Epoch (UTC): 25 September 2017 22:34:41
Eccentricity: 0.0009931
inclination: 98.6850°
perigee height: 811 km
apogee height: 825 km
right ascension of ascending node: 275.1695°
argument of perigee: 36.2102°
revolutions per day: 14.22071418
mean anomaly at epoch: 323.9746°
orbit number at epoch: 73873

The dashed part of the orbit path shows where the satellite is in the earth's shadow,  

DLR